When you browse on this site, cookies collect data to enhance your experience and personalize the content and advertising you see.
Visit our Privacy Policy to learn more. By continuing to use the site, you agree to this use of cookies and data.
  • In Lithuania
  • List of Countries
  • For 7 days
  • Water Temperature
  • Weather Map
  • Weather Widgets
  • user-avatar
    Login

    Hourly Weather Duchan

    Today, 3 June, Wednesday

    Time Temperature Precipitation Wind Pressure Humidity
    00:00 +35°C° 0 mm 2 mps 749 mmHg 35%
    01:00 +35°C° 0 mm 2 mps 748 mmHg 36%
    02:00 +35°C° 0 mm 3 mps 748 mmHg 36%
    03:00 +35°C° 0 mm 4 mps 748 mmHg 36%
    04:00 +36°C° 0 mm 4 mps 748 mmHg 34%
    05:00 +36°C° 0 mm 3 mps 749 mmHg 32%
    06:00 +37°C° 0 mm 3 mps 749 mmHg 30%
    07:00 +41°C° 0 mm 4 mps 749 mmHg 24%
    08:00 +43°C° 0 mm 5 mps 749 mmHg 18%
    09:00 +47°C° 0 mm 6 mps 749 mmHg 12%
    10:00 +48°C° 0 mm 6 mps 749 mmHg 11%
    11:00 +49°C° 0 mm 6 mps 749 mmHg 10%
    12:00 +50°C° 0 mm 5 mps 749 mmHg 9%
    13:00 +51°C° 0 mm 6 mps 748 mmHg 10%
    14:00 +51°C° 0 mm 6 mps 747 mmHg 10%
    15:00 +51°C° 0 mm 6 mps 747 mmHg 11%
    16:00 +48°C° 0 mm 5 mps 747 mmHg 13%
    17:00 +45°C° 0 mm 4 mps 747 mmHg 15%
    18:00 +43°C° 0 mm 4 mps 747 mmHg 17%
    19:00 +42°C° 0 mm 4 mps 747 mmHg 17%
    20:00 +40°C° 0 mm 3 mps 748 mmHg 18%
    21:00 +39°C° 0 mm 3 mps 748 mmHg 19%
    22:00 +38°C° 0 mm 3 mps 748 mmHg 20%
    23:00 +37°C° 0 mm 2 mps 748 mmHg 22%

    Tomorrow, 4 June, Thursday

    Time Temperature Precipitation Wind Pressure Humidity
    00:00 +36°C° 0 mm 2 mps 748 mmHg 23%
    01:00 +36°C° 0 mm 2 mps 748 mmHg 24%
    02:00 +35°C° 0 mm 2 mps 747 mmHg 26%
    03:00 +35°C° 0 mm 2 mps 747 mmHg 27%
    04:00 +36°C° 0 mm 3 mps 748 mmHg 26%
    05:00 +37°C° 0 mm 4 mps 748 mmHg 24%
    06:00 +37°C° 0 mm 4 mps 748 mmHg 23%
    07:00 +41°C° 0 mm 4 mps 749 mmHg 19%
    08:00 +45°C° 0 mm 5 mps 749 mmHg 16%
    09:00 +47°C° 0 mm 5 mps 749 mmHg 12%
    10:00 +48°C° 0 mm 6 mps 749 mmHg 11%
    11:00 +49°C° 0 mm 6 mps 748 mmHg 9%
    12:00 +51°C° 0 mm 6 mps 748 mmHg 8%
    13:00 +51°C° 0 mm 6 mps 748 mmHg 8%
    14:00 +51°C° 0 mm 6 mps 747 mmHg 7%
    15:00 +50°C° 0 mm 5 mps 747 mmHg 7%
    16:00 +48°C° 0 mm 5 mps 747 mmHg 12%
    17:00 +44°C° 0 mm 4 mps 747 mmHg 17%
    18:00 +42°C° 0 mm 4 mps 747 mmHg 21%
    19:00 +40°C° 0 mm 4 mps 748 mmHg 25%
    20:00 +38°C° 0 mm 4 mps 748 mmHg 29%
    21:00 +37°C° 0 mm 4 mps 748 mmHg 33%
    22:00 +37°C° 0 mm 4 mps 748 mmHg 32%
    23:00 +37°C° 0 mm 4 mps 748 mmHg 30%

    Day after tomorrow, 5 June, Friday

    Time Temperature Precipitation Wind Pressure Humidity
    00:00 +37°C° 0 mm 4 mps 748 mmHg 28%
    01:00 +37°C° 0 mm 4 mps 747 mmHg 30%
    02:00 +36°C° 0 mm 5 mps 747 mmHg 31%
    03:00 +36°C° 0 mm 6 mps 747 mmHg 33%
    04:00 +36°C° 0 mm 6 mps 747 mmHg 36%
    05:00 +36°C° 0 mm 7 mps 748 mmHg 40%
    06:00 +37°C° 0 mm 8 mps 748 mmHg 43%
    07:00 +40°C° 0 mm 8 mps 749 mmHg 35%
    08:00 +43°C° 0 mm 8 mps 749 mmHg 27%
    09:00 +46°C° 0 mm 8 mps 749 mmHg 20%
    10:00 +46°C° 0 mm 8 mps 749 mmHg 18%
    11:00 +48°C° 0 mm 8 mps 748 mmHg 16%
    12:00 +49°C° 0 mm 8 mps 748 mmHg 14%
    13:00 +48°C° 0 mm 8 mps 748 mmHg 15%
    14:00 +48°C° 0 mm 8 mps 747 mmHg 15%
    15:00 +48°C° 0 mm 8 mps 747 mmHg 16%
    16:00 +45°C° 0 mm 8 mps 747 mmHg 19%
    17:00 +44°C° 0 mm 7 mps 747 mmHg 22%
    18:00 +41°C° 0 mm 6 mps 747 mmHg 25%
    19:00 +40°C° 0 mm 6 mps 747 mmHg 27%
    20:00 +39°C° 0 mm 5 mps 748 mmHg 30%
    21:00 +37°C° 0 mm 5 mps 748 mmHg 32%
    22:00 +37°C° 0 mm 5 mps 748 mmHg 33%
    23:00 +37°C° 0 mm 5 mps 747 mmHg 33%

    6 June, Saturday

    Time Temperature Precipitation Wind Pressure Humidity
    00:00 +36°C° 0 mm 5 mps 747 mmHg 34%
    01:00 +36°C° 0 mm 5 mps 747 mmHg 37%
    02:00 +36°C° 0 mm 6 mps 747 mmHg 39%
    03:00 +35°C° 0 mm 6 mps 747 mmHg 41%
    04:00 +35°C° 0 mm 6 mps 747 mmHg 43%
    05:00 +36°C° 0 mm 6 mps 747 mmHg 44%
    06:00 +36°C° 0 mm 6 mps 747 mmHg 46%
    07:00 +39°C° 0 mm 7 mps 748 mmHg 38%
    08:00 +43°C° 0 mm 7 mps 748 mmHg 30%
    09:00 +45°C° 0 mm 8 mps 748 mmHg 22%
    10:00 +46°C° 0 mm 8 mps 748 mmHg 20%
    11:00 +48°C° 0 mm 9 mps 748 mmHg 18%
    12:00 +49°C° 0 mm 9 mps 747 mmHg 16%
    13:00 +48°C° 0 mm 9 mps 747 mmHg 17%
    14:00 +47°C° 0 mm 9 mps 747 mmHg 18%
    15:00 +47°C° 0 mm 9 mps 746 mmHg 19%
    16:00 +44°C° 0 mm 8 mps 746 mmHg 21%
    17:00 +43°C° 0 mm 7 mps 746 mmHg 23%
    18:00 +41°C° 0 mm 6 mps 746 mmHg 26%
    19:00 +40°C° 0 mm 6 mps 746 mmHg 29%
    20:00 +39°C° 0 mm 5 mps 747 mmHg 32%
    21:00 +37°C° 0 mm 4 mps 747 mmHg 36%
    22:00 +37°C° 0 mm 4 mps 747 mmHg 36%
    23:00 +36°C° 0 mm 5 mps 746 mmHg 37%

    7 June, Sunday

    Time Temperature Precipitation Wind Pressure Humidity
    00:00 +36°C° 0 mm 5 mps 746 mmHg 37%
    01:00 +36°C° 0 mm 5 mps 746 mmHg 41%
    02:00 +35°C° 0 mm 5 mps 746 mmHg 44%
    03:00 +35°C° 0 mm 5 mps 746 mmHg 48%
    04:00 +35°C° 0 mm 5 mps 746 mmHg 46%
    05:00 +36°C° 0 mm 6 mps 746 mmHg 44%
    06:00 +36°C° 0 mm 6 mps 746 mmHg 43%
    07:00 +40°C° 0 mm 7 mps 747 mmHg 35%
    08:00 +43°C° 0 mm 8 mps 747 mmHg 26%
    09:00 +47°C° 0 mm 9 mps 747 mmHg 18%
    10:00 +48°C° 0 mm 9 mps 747 mmHg 16%
    11:00 +49°C° 0 mm 9 mps 747 mmHg 13%
    12:00 +51°C° 0 mm 9 mps 747 mmHg 11%
    13:00 +50°C° 0 mm 9 mps 747 mmHg 11%
    14:00 +50°C° 0 mm 9 mps 746 mmHg 12%
    15:00 +49°C° 0 mm 9 mps 746 mmHg 12%
    16:00 +46°C° 0 mm 8 mps 746 mmHg 16%
    17:00 +44°C° 0 mm 7 mps 746 mmHg 20%
    18:00 +41°C° 0 mm 6 mps 746 mmHg 24%
    19:00 +40°C° 0 mm 6 mps 746 mmHg 28%
    20:00 +39°C° 0 mm 5 mps 747 mmHg 33%
    21:00 +36°C° 0 mm 5 mps 747 mmHg 37%
    22:00 +36°C° 0 mm 5 mps 747 mmHg 37%
    23:00 +36°C° 0 mm 5 mps 746 mmHg 37%

    8 June, Monday

    Time Temperature Precipitation Wind Pressure Humidity
    00:00 +36°C° 0 mm 5 mps 746 mmHg 37%
    01:00 +36°C° 0 mm 6 mps 746 mmHg 38%
    02:00 +36°C° 0 mm 6 mps 746 mmHg 39%
    03:00 +36°C° 0 mm 7 mps 746 mmHg 41%
    04:00 +36°C° 0 mm 6 mps 746 mmHg 42%
    05:00 +36°C° 0 mm 6 mps 746 mmHg 43%
    06:00 +36°C° 0 mm 6 mps 746 mmHg 44%
    07:00 +40°C° 0 mm 6 mps 747 mmHg 33%
    08:00 +44°C° 0 mm 7 mps 747 mmHg 22%
    09:00 +49°C° 0 mm 7 mps 747 mmHg 11%
    10:00 +49°C° 0 mm 7 mps 747 mmHg 11%
    11:00 +49°C° 0 mm 7 mps 747 mmHg 10%
    12:00 +50°C° 0 mm 7 mps 747 mmHg 10%
    13:00 +49°C° 0 mm 7 mps 746 mmHg 9%
    14:00 +49°C° 0 mm 7 mps 746 mmHg 9%
    15:00 +49°C° 0 mm 7 mps 746 mmHg 8%
    16:00 +46°C° 0 mm 6 mps 746 mmHg 11%
    17:00 +43°C° 0 mm 5 mps 746 mmHg 14%
    18:00 +41°C° 0 mm 5 mps 746 mmHg 17%
    19:00 +38°C° 0 mm 4 mps 746 mmHg 19%
    20:00 +37°C° 0 mm 3 mps 746 mmHg 22%
    21:00 +35°C° 0 mm 2 mps 746 mmHg 25%
    22:00 +35°C° 0 mm 2 mps 746 mmHg 24%
    23:00 +35°C° 0 mm 2 mps 746 mmHg 24%
    Show more